Theta_e
320 317 312 308 305 302 300 300 299 298 298 298 298 298 298 299 299 300 300 301 301 301 302 302 303 303 303 313 305 310 309 309 310 311 310 311 310 308 306 308 309 310 311 315 316 316 317
321 321 316 310 306 302 300 299 298 298 297 298 298 298 298 299 299 299 300 300 301 301 301 302 302 302 306 311 308 307 307 306 308 310 309 308 308 311 312 307 307 310 311 311 312 313 314
322 320 314 314 305 301 300 299 298 297 297 298 297 298 298 299 299 299 300 300 301 301 301 301 301 302 309 308 307 305 306 306 306 306 306 306 306 306 310 309 309 309 307 308 309 313 313
322 319 312 311 307 302 300 299 298 297 297 297 297 297 298 298 299 299 299 300 301 301 301 301 303 309 309 308 306 305 305 305 305 305 306 307 307 306 309 310 309 307 305 306 308 309 311
321 316 312 309 306 303 300 299 298 297 297 297 297 297 297 298 298 299 299 300 302 301 303 305 308 308 308 306 304 304 305 305 304 305 307 306 307 307 308 306 305 305 303 304 306 308 309
315 312 310 308 305 302 300 300 298 297 297 296 296 296 297 297 298 299 300 302 304 305 304 307 307 308 307 306 303 304 304 304 305 305 306 307 308 307 305 305 306 305 304 306 306 307 308
316 312 309 307 303 302 301 299 298 297 296 295 296 296 297 297 297 299 301 303 304 309 304 303 304 304 305 304 304 304 304 305 305 306 304 306 303 303 304 305 306 305 306 306 307 308 308
314 312 309 305 304 302 299 298 298 297 295 295 295 296 296 297 297 300 301 302 300 302 305 304 305 305 304 303 304 304 304 305 304 303 304 303 303 305 307 307 306 306 305 306 306 307 307
313 311 308 305 305 302 299 301 298 296 295 294 295 295 296 296 300 302 302 300 299 299 305 305 304 304 302 303 303 304 304 305 303 302 303 305 306 307 306 305 306 307 306 306 306 306 306
312 309 306 305 304 302 302 299 296 295 295 294 295 295 295 299 302 303 304 302 298 300 308 304 305 305 303 303 304 304 305 304 304 303 304 305 306 305 304 304 304 304 306 307 307 307 305
308 306 305 303 303 301 298 296 296 295 294 294 295 295 295 299 303 303 302 299 300 308 313 305 303 303 303 303 303 304 304 304 303 303 305 305 305 303 303 304 305 306 306 306 307 307 306
306 305 303 303 301 300 299 297 295 294 294 294 294 294 296 300 303 302 297 300 306 311 311 303 303 303 303 304 304 304 304 304 305 306 305 305 305 303 303 305 304 305 307 307 307 307 307
303 303 302 302 300 300 300 298 294 293 293 294 294 294 299 302 305 304 299 306 308 310 305 303 303 303 303 304 304 304 304 302 302 305 304 304 304 304 304 303 304 305 308 309 308 307 307
301 301 301 300 301 300 299 297 293 293 293 293 293 293 298 301 303 297 306 306 309 307 304 304 303 302 303 304 304 304 303 302 304 303 304 305 305 303 303 303 305 305 306 309 312 308 307
300 300 300 300 300 299 298 297 295 293 293 293 293 297 302 301 295 301 306 304 307 305 304 303 302 302 304 304 303 303 303 303 304 304 303 304 304 303 303 304 305 308 311 310 312 310 309
300 300 300 299 299 298 297 296 295 292 292 292 301 303 303 303 294 306 305 308 304 303 302 302 303 303 303 303 303 303 303 304 304 304 304 304 303 303 304 304 306 307 309 313 309 308 308
299 299 298 298 297 297 296 296 293 292 291 294 302 303 304 301 295 306 304 305 304 302 302 302 303 303 303 303 303 303 303 304 304 304 303 303 303 303 303 304 304 307 309 310 312 310 307
299 298 297 296 297 296 298 297 294 291 292 299 302 302 303 295 304 305 304 306 302 303 302 302 303 303 303 304 303 303 303 303 304 303 303 303 301 303 302 303 305 307 306 308 312 313 310
298 298 297 296 296 297 297 296 293 291 293 300 301 303 301 300 303 303 304 303 301 302 303 303 303 304 303 302 302 304 302 303 302 303 303 302 299 303 304 304 306 305 306 306 311 312 311
298 297 297 296 297 297 296 294 292 291 295 300 302 302 300 297 301 303 304 303 302 301 301 302 302 301 301 302 303 303 303 302 302 302 302 303 303 305 304 303 304 306 306 307 310 314 312
298 298 297 296 297 297 296 295 292 291 298 299 301 302 302 301 302 302 302 303 303 303 301 300 301 301 301 301 302 302 301 301 301 301 301 301 300 301 303 305 305 306 308 311 312 313 313
298 299 298 297 297 295 296 294 293 292 297 300 299 301 301 300 302 302 302 302 303 302 302 302 301 301 301 300 300 299 299 299 300 300 300 300 301 303 305 305 306 307 310 311 312 312 314
298 298 298 297 297 295 295 294 295 292 293 298 299 299 300 301 300 301 301 302 301 301 301 300 300 299 299 300 299 299 299 299 299 299 299 300 301 303 305 306 306 311 310 309 309 309 310
299 298 297 297 296 295 294 296 294 292 293 298 298 299 299 299 299 300 301 301 302 301 300 300 300 299 299 299 299 299 300 300 300 300 301 301 301 304 306 306 308 308 306 306 309 307 306
299 299 297 297 296 295 295 295 294 292 293 297 298 298 299 298 299 300 300 300 299 299 299 299 299 299 299 299 299 299 300 301 303 304 305 305 305 306 307 308 307 305 303 306 306 309 305
299 299 298 297 296 296 296 296 295 293 292 294 297 297 298 299 298 299 299 299 297 297 298 299 299 299 299 298 297 301 301 302 303 304 305 305 305 304 307 309 310 303 302 302 306 309 304
299 299 299 297 296 296 296 296 296 295 294 294 296 296 297 298 297 298 297 298 299 298 296 298 301 299 299 295 299 300 301 302 303 304 304 303 303 305 306 307 307 300 301 302 304 304 301
298 298 298 298 297 296 297 297 297 295 294 294 295 295 296 298 297 297 299 298 298 298 296 299 298 299 298 297 298 297 300 302 302 303 304 303 303 302 305 306 302 298 300 301 299 299 299
298 298 298 298 298 296 296 297 297 296 295 294 294 295 295 297 297 298 297 298 298 298 297 298 299 299 299 297 300 299 299 297 300 299 301 304 302 302 302 303 300 297 297 296 296 296 297
Wind_Speed
29 27 25 25 22 21 18 17 14 13 11 11 11 9 6 6 6 6 6 7 7 9 9 10 10 9 4 2 5 9 9 4 6 9 12 13 15 18 7 11 18 9 8 21 26 29 28
32 31 28 28 24 21 20 18 16 14 12 12 11 10 7 6 6 6 7 8 8 8 8 10 9 6 1 2 4 6 8 10 5 4 8 11 13 17 15 12 9 15 24 24 29 27 27
35 34 32 30 26 23 22 20 17 15 13 13 12 10 7 6 6 6 7 8 8 7 7 7 7 4 5 3 2 10 6 9 9 14 17 14 14 16 15 10 14 16 12 15 18 18 16
40 38 36 32 28 25 23 20 17 15 14 13 13 11 9 7 6 7 8 8 6 5 4 3 2 3 3 1 6 13 7 8 9 12 14 16 13 16 15 18 18 8 7 7 11 10 22
46 42 39 35 29 26 21 19 18 16 15 14 14 11 10 7 6 7 8 6 3 1 5 2 6 5 2 1 11 9 7 13 18 14 13 20 8 7 11 6 8 5 8 9 21 15 16
48 44 39 36 31 28 24 21 19 17 18 17 15 12 10 7 6 6 6 5 1 2 4 3 4 5 3 3 7 10 9 7 18 17 17 13 5 2 3 1 10 8 8 13 17 18 13
55 49 43 37 33 29 24 23 22 22 19 18 15 12 10 7 5 4 3 2 2 2 2 2 0 3 3 4 5 3 12 11 17 15 6 13 6 7 14 10 17 17 18 22 24 23 19
59 52 45 37 29 27 27 23 20 22 20 17 15 12 9 5 3 1 2 3 4 1 4 3 2 4 1 5 5 6 13 9 10 7 11 6 6 8 19 17 16 17 20 23 25 19 16
62 52 44 34 34 31 30 26 25 24 19 17 15 11 7 4 3 2 7 5 2 1 2 7 7 5 4 3 4 4 7 7 8 6 9 6 11 12 16 18 20 22 20 18 24 26 23
60 50 40 40 35 28 29 27 27 23 19 16 14 11 7 7 5 5 6 5 6 2 2 8 5 6 3 7 1 5 4 9 2 8 9 3 7 13 15 19 19 24 17 21 23 22 17
53 45 42 35 30 27 25 25 23 22 20 16 14 11 6 6 7 4 6 7 5 2 1 9 6 5 1 2 2 4 10 6 8 13 4 5 13 16 17 15 19 15 19 22 22 19 20
50 43 36 32 30 25 24 24 24 22 20 17 14 11 10 9 5 6 4 3 3 3 4 2 6 5 2 7 3 1 9 14 16 3 9 11 15 14 16 18 16 21 16 19 18 13 16
42 37 37 34 28 27 24 22 23 21 18 17 14 12 12 11 6 6 3 4 3 3 5 6 3 4 3 6 2 3 4 6 4 6 7 15 6 15 15 22 23 11 10 6 6 7 14
37 36 31 30 26 22 20 19 19 19 17 16 12 11 12 11 8 6 6 2 2 5 5 4 2 3 4 2 2 5 6 4 4 5 5 8 20 8 16 19 16 22 13 10 7 4 12
35 32 30 25 22 20 18 16 17 19 16 14 11 8 6 4 4 11 3 2 3 3 4 3 3 4 2 6 4 6 6 1 2 2 3 6 12 18 14 16 10 8 6 14 12 13 10
30 28 24 21 19 16 16 19 16 15 14 15 14 9 9 4 5 9 2 3 3 5 5 3 1 3 2 5 4 6 3 3 5 4 2 5 19 10 11 20 4 13 11 5 2 4 5
26 23 19 15 15 15 15 13 14 16 15 16 13 5 7 4 8 3 3 4 6 9 4 1 2 3 4 4 2 3 4 8 5 5 9 4 2 16 9 6 20 10 8 6 5 7 3
19 16 13 15 16 16 17 13 12 15 17 15 5 2 3 9 3 4 3 3 3 11 5 1 1 1 4 3 2 4 4 4 4 3 6 0 4 8 23 22 11 3 13 6 5 4 7
16 14 16 17 19 18 16 14 13 17 20 15 4 5 3 9 3 2 4 4 2 2 5 5 4 4 3 2 4 3 6 14 20 6 1 3 4 7 15 3 1 16 21 18 13 7 6
17 16 15 15 18 17 12 12 17 20 19 12 2 3 3 4 3 2 2 4 5 2 4 4 1 6 4 5 6 5 9 5 20 16 6 1 4 2 8 16 18 23 28 24 12 5 6
16 20 19 18 17 15 13 11 18 20 18 7 2 1 5 2 2 3 3 2 4 4 5 1 2 7 6 4 5 6 8 10 17 19 11 4 3 11 16 19 22 23 18 20 19 15 8
15 23 18 14 14 13 15 13 19 20 18 5 3 2 3 1 3 6 3 2 6 5 6 4 3 6 6 4 4 6 8 7 5 10 3 7 5 11 21 17 19 19 9 18 14 19 13
19 19 17 15 14 12 14 17 18 20 20 4 4 4 3 2 2 4 4 4 4 2 7 6 5 5 6 6 16 18 21 21 17 16 21 5 4 6 16 16 20 2 10 16 5 20 17
22 22 19 19 18 17 16 18 16 20 22 6 6 2 1 3 2 5 6 1 2 2 2 5 8 4 7 13 18 23 24 26 27 23 21 16 13 6 9 12 4 6 12 18 12 20 15
22 22 21 21 20 19 16 18 16 19 23 9 7 6 4 1 4 7 8 5 2 5 3 3 12 12 4 9 4 6 5 4 5 5 8 4 5 3 2 5 11 17 17 19 12 8 20
23 21 21 22 22 21 17 18 16 16 19 15 6 5 2 3 3 10 10 9 3 1 4 15 17 5 3 1 1 2 3 4 4 8 4 3 10 4 2 5 1 9 21 36 15 4 25
25 24 25 23 24 24 21 18 17 16 17 17 9 6 3 3 4 9 5 4 2 2 1 4 3 4 2 2 1 3 4 4 3 6 6 5 4 2 3 2 3 17 19 23 9 7 28
26 26 25 26 24 25 23 19 16 19 17 19 15 9 6 1 6 6 5 7 8 7 3 6 4 4 3 1 2 3 2 3 3 3 3 3 5 3 4 4 4 28 7 7 9 18 23
21 26 26 27 26 24 23 20 16 20 18 18 20 12 9 6 5 5 8 6 4 3 4 3 2 2 2 1 2 3 3 3 3 2 4 2 3 1 3 3 3 9 10 15 18 16 22
Wind_Direction
268 269 262 259 259 256 253 257 260 258 251 253 255 260 257 255 261 276 288 297 311 319 322 323 324 326 330 80 58 4 338 7 0 359 333 325 309 307 295 311 322 292 275 275 277 277 277
265 266 263 258 253 248 253 252 254 249 244 244 251 253 248 246 259 275 288 300 312 320 321 318 316 320 210 98 71 281 313 352 325 313 328 322 332 329 308 288 279 289 293 288 289 282 282
260 261 253 258 249 243 245 250 249 243 238 241 245 246 243 244 259 276 290 298 312 316 311 302 300 304 132 132 223 358 19 345 342 331 315 300 296 310 307 318 294 311 313 308 282 275 266
256 253 242 245 244 240 241 244 245 239 236 234 239 244 243 244 258 277 289 298 305 303 311 306 53 141 86 306 289 317 9 349 327 321 299 315 304 283 274 273 284 309 288 285 278 264 269
249 238 232 229 231 232 236 237 240 232 229 231 238 240 244 248 260 276 286 289 307 172 12 164 105 33 162 15 347 41 14 325 331 338 312 308 275 254 268 288 306 218 262 244 279 253 260
232 224 219 221 221 227 224 227 228 228 230 227 229 235 243 250 260 274 287 274 283 191 7 83 116 315 243 280 333 1 5 343 339 344 337 359 203 211 311 36 268 262 262 277 276 285 278
228 221 215 215 217 219 216 222 221 219 225 224 226 231 239 251 260 292 274 216 143 219 53 215 232 277 140 272 7 5 357 359 357 360 10 343 349 301 289 302 303 305 307 289 272 274 267
222 216 211 213 212 208 205 207 213 221 220 220 222 227 234 244 233 42 65 93 91 258 334 224 217 195 214 13 313 4 4 29 3 2 332 353 298 303 317 319 314 308 304 295 302 303 298
215 210 209 203 200 202 200 204 212 217 213 214 217 224 226 218 114 55 22 52 17 198 224 198 210 191 201 308 320 336 2 351 346 309 310 301 297 333 325 310 307 301 298 303 297 302 298
206 204 193 194 198 199 196 202 214 208 208 210 211 217 214 174 114 115 279 318 345 162 107 163 211 190 194 304 202 351 45 358 298 310 298 288 310 321 320 313 309 300 315 313 308 308 283
191 187 186 193 192 189 200 207 205 202 204 206 206 206 192 171 136 113 262 311 19 84 227 181 123 139 229 284 277 56 9 314 288 276 268 272 336 332 313 300 305 319 320 305 292 289 294
181 182 178 178 189 192 200 205 202 204 198 200 200 193 169 138 159 200 290 81 101 63 232 155 136 161 341 314 92 48 346 306 302 6 340 320 317 296 305 308 324 315 314 297 276 269 263
171 177 175 175 187 200 207 204 195 202 197 195 195 187 175 166 173 226 137 83 65 183 167 144 132 79 329 273 93 58 322 18 11 359 331 313 299 311 299 337 310 307 321 299 265 245 256
163 164 168 172 186 197 200 203 188 196 192 191 187 179 168 185 209 165 131 71 139 154 99 43 66 343 247 89 61 349 16 5 46 14 329 334 320 339 330 307 317 315 271 263 287 257 270
159 161 169 174 187 196 204 188 185 192 188 179 164 159 170 169 185 155 127 93 228 45 105 73 326 221 239 92 75 33 351 72 289 353 167 307 287 314 288 339 338 327 271 290 268 264 278
158 159 171 174 193 208 208 184 185 181 180 163 151 142 183 218 177 149 91 241 131 80 104 127 251 62 357 22 4 18 311 248 281 282 268 265 300 311 315 313 237 342 318 322 170 271 264
160 160 165 173 184 189 174 175 178 176 172 158 153 163 192 210 152 122 171 226 121 106 86 130 349 20 16 352 16 327 259 302 265 6 353 316 163 302 294 306 303 332 344 303 296 260 253
142 147 166 169 169 163 171 187 179 169 165 153 158 149 170 161 122 211 187 235 61 127 123 34 111 273 232 312 324 283 295 301 51 349 330 232 234 292 291 293 295 204 324 274 304 347 310
154 154 157 164 167 171 182 188 178 167 161 154 175 141 160 171 134 261 260 117 74 188 170 183 203 198 52 19 313 288 310 316 326 3 93 282 313 311 318 310 166 320 316 314 330 257 236
159 165 169 166 169 179 175 171 162 168 167 170 144 125 99 181 282 326 309 182 155 179 1 21 1 344 342 277 266 283 310 311 338 347 342 238 186 216 282 276 290 302 311 314 325 270 278
172 166 163 156 174 179 177 172 168 175 177 164 75 170 175 174 261 249 300 229 227 153 181 12 245 223 237 254 284 292 326 331 334 309 343 358 282 288 280 281 289 292 326 338 298 272 267
169 177 166 165 170 176 182 186 173 176 179 152 123 32 66 42 206 172 243 183 272 217 158 181 223 274 319 340 354 332 338 329 286 304 309 298 265 302 294 298 293 312 314 336 5 21 356
184 182 175 176 182 182 181 180 180 182 177 114 74 59 53 313 228 139 207 181 291 19 19 38 22 347 333 330 339 324 308 290 271 270 277 258 252 286 288 305 314 4 350 353 334 33 20
190 186 186 185 184 183 183 179 183 180 169 134 66 106 124 285 314 190 240 215 250 174 147 349 5 13 325 323 321 312 288 269 261 260 252 256 259 251 281 304 322 23 347 339 354 39 19
196 191 187 187 182 179 179 183 179 176 180 174 106 56 19 312 310 312 260 167 104 5 1 281 272 271 305 353 344 318 305 309 269 62 20 45 27 315 249 315 271 32 336 331 325 50 11
201 201 192 191 188 185 180 185 182 175 187 191 151 98 47 346 26 354 328 130 118 238 281 254 256 198 50 86 78 269 299 273 324 337 10 351 224 173 349 286 311 354 328 322 316 77 357
200 201 201 195 197 194 190 190 192 185 190 194 176 153 87 5 347 336 25 19 45 205 239 334 18 155 223 125 317 238 245 260 355 337 339 332 352 45 288 290 103 355 339 335 48 326 337
205 206 204 203 200 199 198 198 204 199 199 200 185 175 198 299 301 325 6 13 347 15 56 11 0 6 11 46 199 268 330 331 358 9 6 24 333 340 330 353 350 7 7 39 316 327 348
202 204 209 209 203 202 202 204 206 192 202 201 203 201 206 234 263 273 265 238 261 1 38 351 8 304 30 40 35 335 336 342 326 299 342 74 131 230 15 41 66 33 28 2 2 352 354